Location: *
(37.5724°S, 58.0067°E)
Time: 10:17:12
(UTC+00:00)

USA 229 DEB - Pass Details

Date: 01 December 2021
Orbit: 943 x 1269 km, 63.4° (Epoch: 14 January)

Event Time Altitude Azimuth Distance (km) Brightness Sun altitude
Rises 17:19:28 0° 333° (NNW) 4,213 6.6 -19.9°
Reaches altitude 10° 17:22:18 10° 333° (NNW) 3,240 6.0 -20.3°
Maximum altitude 17:30:11 83° 59° (ENE) 1,242 3.9 -21.2°
Drops below altitude 10° 17:37:43 10° 146° (SE) 3,097 6.4 -22.1°
Sets 17:40:21 0° 146° (SE) 4,019 7.0 -22.4°
